Time,TemperatureF,DewpointF,PressureIn,WindDirection,WindDirectionDegrees,WindSpeedMPH,WindSpeedGustMPH,Humidity,HourlyPrecipIn,Conditions,Clouds,dailyrainin,SoftwareType,DateUTC
2013-02-07 00:05:00,28.1,16.0,29.69,WNW,300,0.0,2.0,60,0.00,,,0.00,Wunderground v.1.15,2013-02-07 07:05:00,
2013-02-07 00:10:00,27.9,15.8,29.70,WNW,300,0.0,2.0,60,0.00,,,0.00,Wunderground v.1.15,2013-02-07 07:10:00,
2013-02-07 00:15:00,27.7,16.0,29.70,WNW,300,0.0,2.0,61,0.00,,,0.00,Wunderground v.1.15,2013-02-07 07:15:00,
2013-02-07 00:20:00,27.5,15.8,29.70,WNW,300,0.0,2.0,61,0.00,,,0.00,Wunderground v.1.15,2013-02-07 07:20:00,
2013-02-07 00:25:00,27.5,16.5,29.70,WNW,300,0.0,2.0,63,0.00,,,0.00,Wunderground v.1.15,2013-02-07 07:25:00,
2013-02-07 00:35:00,27.2,15.9,29.70,WNW,300,0.0,2.0,62,0.00,,,0.00,Wunderground v.1.15,2013-02-07 07:35:00,
2013-02-07 00:40:00,27.1,15.8,29.70,WNW,300,0.0,2.0,62,0.00,,,0.00,Wunderground v.1.15,2013-02-07 07:40:00,
2013-02-07 00:45:00,27.1,16.2,29.71,WNW,300,0.0,2.0,63,0.00,,,0.00,Wunderground v.1.15,2013-02-07 07:45:00,
2013-02-07 00:50:00,27.0,16.1,29.71,WNW,300,0.0,2.0,63,0.00,,,0.00,Wunderground v.1.15,2013-02-07 07:50:00,
2013-02-07 00:55:00,27.0,16.1,29.71,WNW,300,0.0,2.0,63,0.00,,,0.00,Wunderground v.1.15,2013-02-07 07:55:00,
2013-02-07 01:00:00,27.1,16.2,29.71,WNW,300,0.0,2.0,63,0.00,,,0.00,Wunderground v.1.15,2013-02-07 08:00:00,
2013-02-07 01:05:00,27.2,16.6,29.71,WNW,300,0.0,2.0,64,0.00,,,0.00,Wunderground v.1.15,2013-02-07 08:05:00,
2013-02-07 01:10:00,27.2,17.0,29.71,WNW,300,0.0,2.0,65,0.00,,,0.00,Wunderground v.1.15,2013-02-07 08:10:00,
2013-02-07 01:15:00,27.2,16.6,29.71,WNW,300,0.0,2.0,64,0.00,,,0.00,Wunderground v.1.15,2013-02-07 08:15:00,
2013-02-07 01:20:00,27.2,16.3,29.71,WNW,300,0.0,2.0,63,0.00,,,0.00,Wunderground v.1.15,2013-02-07 08:20:00,
2013-02-07 01:25:00,27.2,16.3,29.71,WNW,300,0.0,2.0,63,0.00,,,0.00,Wunderground v.1.15,2013-02-07 08:25:00,
2013-02-07 01:30:00,27.2,16.3,29.72,WNW,300,0.0,2.0,63,0.00,,,0.00,Wunderground v.1.15,2013-02-07 08:30:00,
2013-02-07 01:40:00,27.2,17.0,29.71,WNW,300,0.0,2.0,65,0.00,,,0.00,Wunderground v.1.15,2013-02-07 08:40:00,
2013-02-07 01:45:00,27.2,17.0,29.72,WNW,300,0.0,2.0,65,0.00,,,0.00,Wunderground v.1.15,2013-02-07 08:45:00,
2013-02-07 01:50:00,27.0,16.4,29.72,WNW,300,0.0,2.0,64,0.00,,,0.00,Wunderground v.1.15,2013-02-07 08:50:00,
2013-02-07 01:55:00,26.7,16.1,29.72,WNW,300,0.0,2.0,64,0.00,,,0.00,Wunderground v.1.15,2013-02-07 08:55:00,
2013-02-07 02:00:00,26.5,16.3,29.72,WNW,300,0.0,2.0,65,0.00,,,0.00,Wunderground v.1.15,2013-02-07 09:00:00,
2013-02-07 02:05:00,26.2,16.0,29.72,WNW,300,0.0,2.0,65,0.00,,,0.00,Wunderground v.1.15,2013-02-07 09:05:00,
2013-02-07 02:10:00,25.9,15.7,29.73,WNW,300,0.0,2.0,65,0.00,,,0.00,Wunderground v.1.15,2013-02-07 09:10:00,
2013-02-07 02:20:00,25.4,15.3,29.73,WNW,300,0.0,2.0,65,0.00,,,0.00,Wunderground v.1.15,2013-02-07 09:20:00,
2013-02-07 02:25:00,25.1,15.3,29.73,WNW,300,0.0,2.0,66,0.00,,,0.00,Wunderground v.1.15,2013-02-07 09:25:00,
2013-02-07 02:30:00,24.9,14.8,29.73,WNW,300,0.0,2.0,65,0.00,,,0.00,Wunderground v.1.15,2013-02-07 09:30:00,
2013-02-07 02:35:00,24.6,14.5,29.73,WNW,300,0.0,2.0,65,0.00,,,0.00,Wunderground v.1.15,2013-02-07 09:35:00,
2013-02-07 02:40:00,24.0,13.9,29.73,WNW,300,0.0,2.0,65,0.00,,,0.00,Wunderground v.1.15,2013-02-07 09:40:00,
2013-02-07 02:45:00,23.6,13.9,29.73,WNW,300,0.0,2.0,66,0.00,,,0.00,Wunderground v.1.15,2013-02-07 09:45:00,
2013-02-07 02:50:00,23.1,13.8,29.74,WNW,300,0.0,2.0,67,0.00,,,0.00,Wunderground v.1.15,2013-02-07 09:50:00,
2013-02-07 02:55:00,22.5,13.5,29.74,WNW,300,0.0,2.0,68,0.00,,,0.00,Wunderground v.1.15,2013-02-07 09:55:00,
2013-02-07 03:00:00,22.2,13.2,29.74,WNW,300,0.0,2.0,68,0.00,,,0.00,Wunderground v.1.15,2013-02-07 10:00:00,
2013-02-07 03:05:00,21.7,13.1,29.74,WNW,300,0.0,2.0,69,0.00,,,0.00,Wunderground v.1.15,2013-02-07 10:05:00,
2013-02-07 03:10:00,21.4,13.1,29.74,WNW,300,0.0,2.0,70,0.00,,,0.00,Wunderground v.1.15,2013-02-07 10:10:00,
2013-02-07 03:15:00,21.0,12.7,29.74,WNW,300,0.0,2.0,70,0.00,,,0.00,Wunderground v.1.15,2013-02-07 10:15:00,
2013-02-07 03:20:00,20.6,12.7,29.74,WNW,300,0.0,2.0,71,0.00,,,0.00,Wunderground v.1.15,2013-02-07 10:20:00,
2013-02-07 03:25:00,20.1,12.2,29.75,WNW,300,0.0,2.0,71,0.00,,,0.00,Wunderground v.1.15,2013-02-07 10:25:00,
2013-02-07 03:30:00,19.7,12.4,29.75,WNW,300,0.0,2.0,73,0.00,,,0.00,Wunderground v.1.15,2013-02-07 10:30:00,
2013-02-07 03:35:00,19.6,12.7,29.75,WNW,300,0.0,2.0,74,0.00,,,0.00,Wunderground v.1.15,2013-02-07 10:35:00,
2013-02-07 03:40:00,19.7,12.8,29.75,WNW,300,0.0,2.0,74,0.00,,,0.00,Wunderground v.1.15,2013-02-07 10:40:00,
2013-02-07 03:45:00,19.8,12.8,29.75,WNW,300,0.0,2.0,74,0.00,,,0.00,Wunderground v.1.15,2013-02-07 10:45:00,
2013-02-07 03:50:00,20.0,13.0,29.75,WNW,300,0.0,2.0,74,0.00,,,0.00,Wunderground v.1.15,2013-02-07 10:50:00,
2013-02-07 03:55:00,20.0,12.7,29.75,WNW,300,0.0,2.0,73,0.00,,,0.00,Wunderground v.1.15,2013-02-07 10:55:00,
2013-02-07 04:00:00,20.1,12.8,29.75,WNW,300,0.0,2.0,73,0.00,,,0.00,Wunderground v.1.15,2013-02-07 11:00:00,
2013-02-07 04:05:00,20.0,12.7,29.75,WNW,300,0.0,2.0,73,0.00,,,0.00,Wunderground v.1.15,2013-02-07 11:05:00,
2013-02-07 04:10:00,19.7,12.1,29.75,WNW,300,0.0,2.0,72,0.00,,,0.00,Wunderground v.1.15,2013-02-07 11:10:00,
2013-02-07 04:15:00,19.5,12.3,29.76,WNW,300,0.0,2.0,73,0.00,,,0.00,Wunderground v.1.15,2013-02-07 11:15:00,
2013-02-07 04:25:00,18.5,11.3,29.76,WNW,300,0.0,2.0,73,0.00,,,0.00,Wunderground v.1.15,2013-02-07 11:25:00,
2013-02-07 04:30:00,18.2,11.3,29.77,WNW,300,0.0,2.0,74,0.00,,,0.00,Wunderground v.1.15,2013-02-07 11:30:00,
2013-02-07 04:35:00,17.9,11.0,29.77,WNW,300,0.0,2.0,74,0.00,,,0.00,Wunderground v.1.15,2013-02-07 11:35:00,
2013-02-07 04:40:00,17.6,11.0,29.77,WNW,300,0.0,2.0,75,0.00,,,0.00,Wunderground v.1.15,2013-02-07 11:40:00,
2013-02-07 04:45:00,17.2,10.6,29.77,WNW,300,0.0,2.0,75,0.00,,,0.00,Wunderground v.1.15,2013-02-07 11:45:00,
2013-02-07 04:50:00,16.9,10.6,29.77,WNW,300,0.0,2.0,76,0.00,,,0.00,Wunderground v.1.15,2013-02-07 11:50:00,
2013-02-07 04:55:00,16.7,10.7,29.77,WNW,300,0.0,2.0,77,0.00,,,0.00,Wunderground v.1.15,2013-02-07 11:55:00,
2013-02-07 05:00:00,16.5,10.5,29.78,WNW,300,0.0,2.0,77,0.00,,,0.00,Wunderground v.1.15,2013-02-07 12:00:00,
2013-02-07 05:05:00,16.3,10.4,29.78,WNW,300,0.0,2.0,77,0.00,,,0.00,Wunderground v.1.15,2013-02-07 12:05:00,
2013-02-07 05:15:00,16.0,10.3,29.78,WNW,300,0.0,2.0,78,0.00,,,0.00,Wunderground v.1.15,2013-02-07 12:15:00,
2013-02-07 05:20:00,15.9,10.5,29.79,WNW,300,0.0,2.0,79,0.00,,,0.00,Wunderground v.1.15,2013-02-07 12:20:00,
2013-02-07 05:25:00,16.1,10.7,29.79,WNW,300,0.0,2.0,79,0.00,,,0.00,Wunderground v.1.15,2013-02-07 12:25:00,
2013-02-07 05:30:00,16.0,10.1,29.80,WNW,300,0.0,2.0,77,0.00,,,0.00,Wunderground v.1.15,2013-02-07 12:30:00,
2013-02-07 05:35:00,15.8,10.2,29.80,WNW,300,0.0,2.0,78,0.00,,,0.00,Wunderground v.1.15,2013-02-07 12:35:00,
2013-02-07 05:40:00,15.7,10.1,29.80,WNW,300,0.0,2.0,78,0.00,,,0.00,Wunderground v.1.15,2013-02-07 12:40:00,
2013-02-07 05:50:00,15.2,10.1,29.80,WNW,300,0.0,2.0,80,0.00,,,0.00,Wunderground v.1.15,2013-02-07 12:50:00,
2013-02-07 05:55:00,15.1,10.6,29.81,WNW,300,0.0,2.0,82,0.00,,,0.00,Wunderground v.1.15,2013-02-07 12:55:00,
2013-02-07 06:00:00,15.3,10.8,29.81,WNW,300,0.0,2.0,82,0.00,,,0.00,Wunderground v.1.15,2013-02-07 13:00:00,
2013-02-07 06:05:00,15.1,10.6,29.81,WNW,300,0.0,2.0,82,0.00,,,0.00,Wunderground v.1.15,2013-02-07 13:05:00,
2013-02-07 06:10:00,14.8,10.3,29.81,WNW,300,0.0,2.0,82,0.00,,,0.00,Wunderground v.1.15,2013-02-07 13:10:00,
2013-02-07 06:15:00,14.6,10.1,29.82,WNW,300,0.0,2.0,82,0.00,,,0.00,Wunderground v.1.15,2013-02-07 13:15:00,
2013-02-07 06:20:00,14.4,9.9,29.82,WNW,300,0.0,2.0,82,0.00,,,0.00,Wunderground v.1.15,2013-02-07 13:20:00,
2013-02-07 06:30:00,14.0,9.5,29.82,WNW,300,0.0,2.0,82,0.00,,,0.00,Wunderground v.1.15,2013-02-07 13:30:00,
2013-02-07 06:35:00,13.9,9.4,29.83,WNW,300,0.0,2.0,82,0.00,,,0.00,Wunderground v.1.15,2013-02-07 13:35:00,
2013-02-07 06:40:00,13.7,9.2,29.83,WNW,300,0.0,2.0,82,0.00,,,0.00,Wunderground v.1.15,2013-02-07 13:40:00,
2013-02-07 06:45:00,13.5,9.0,29.83,WNW,300,0.0,2.0,82,0.00,,,0.00,Wunderground v.1.15,2013-02-07 13:45:00,
2013-02-07 06:50:00,13.4,8.9,29.83,WNW,300,0.0,2.0,82,0.00,,,0.00,Wunderground v.1.15,2013-02-07 13:50:00,
2013-02-07 06:55:00,13.3,8.8,29.84,WNW,300,0.0,2.0,82,0.00,,,0.00,Wunderground v.1.15,2013-02-07 13:55:00,
2013-02-07 07:05:00,13.0,8.5,29.85,WNW,300,0.0,2.0,82,0.00,,,0.00,Wunderground v.1.15,2013-02-07 14:05:00,
2013-02-07 07:10:00,12.9,8.7,29.85,WNW,300,0.0,2.0,83,0.00,,,0.00,Wunderground v.1.15,2013-02-07 14:10:00,
2013-02-07 07:15:00,12.9,8.7,29.86,WNW,300,0.0,2.0,83,0.00,,,0.00,Wunderground v.1.15,2013-02-07 14:15:00,
2013-02-07 07:20:00,12.8,8.9,29.86,WNW,300,0.0,2.0,84,0.00,,,0.00,Wunderground v.1.15,2013-02-07 14:20:00,
2013-02-07 07:25:00,13.0,9.1,29.86,WNW,300,0.0,2.0,84,0.00,,,0.00,Wunderground v.1.15,2013-02-07 14:25:00,
2013-02-07 07:30:00,13.0,9.1,29.86,WNW,300,0.0,2.0,84,0.00,,,0.00,Wunderground v.1.15,2013-02-07 14:30:00,
2013-02-07 07:35:00,13.1,9.2,29.86,WNW,300,0.0,2.0,84,0.00,,,0.00,Wunderground v.1.15,2013-02-07 14:35:00,
2013-02-07 07:40:00,13.4,9.5,29.87,WNW,300,0.0,2.0,84,0.00,,,0.00,Wunderground v.1.15,2013-02-07 14:40:00,
2013-02-07 07:45:00,14.1,10.2,29.87,WNW,300,0.0,2.0,84,0.00,,,0.00,Wunderground v.1.15,2013-02-07 14:45:00,
2013-02-07 07:55:00,16.4,11.3,29.88,WNW,300,0.0,2.0,80,0.00,,,0.00,Wunderground v.1.15,2013-02-07 14:55:00,
2013-02-07 08:00:00,18.0,12.0,29.88,WNW,300,0.0,2.0,77,0.00,,,0.00,Wunderground v.1.15,2013-02-07 15:00:00,
2013-02-07 08:05:00,19.7,12.1,29.88,WNW,294,0.0,2.0,72,0.00,,,0.00,Wunderground v.1.15,2013-02-07 15:05:00,
2013-02-07 08:10:00,21.4,12.5,29.88,SSW,212,0.0,2.0,68,0.00,,,0.00,Wunderground v.1.15,2013-02-07 15:10:00,
2013-02-07 08:20:00,24.0,12.5,29.88,SW,219,0.0,2.0,61,0.00,,,0.00,Wunderground v.1.15,2013-02-07 15:20:00,
2013-02-07 08:25:00,25.2,12.1,29.89,WNW,286,0.0,2.0,57,0.00,,,0.00,Wunderground v.1.15,2013-02-07 15:25:00,
2013-02-07 08:30:00,26.1,11.7,29.89,NNW,343,0.0,2.0,54,0.00,,,0.00,Wunderground v.1.15,2013-02-07 15:30:00,
2013-02-07 08:40:00,26.8,11.1,29.89,NW,307,0.0,2.0,51,0.00,,,0.00,Wunderground v.1.15,2013-02-07 15:40:00,
2013-02-07 08:55:00,27.8,11.5,29.90,West,281,0.0,2.0,50,0.00,,,0.00,Wunderground v.1.15,2013-02-07 15:55:00,
2013-02-07 09:05:00,28.7,12.4,29.89,NW,325,0.0,2.0,50,0.00,,,0.00,Wunderground v.1.15,2013-02-07 16:05:00,
2013-02-07 09:10:00,29.3,11.1,29.89,NW,313,0.0,2.0,46,0.00,,,0.00,Wunderground v.1.15,2013-02-07 16:10:00,
2013-02-07 09:20:00,30.2,10.9,29.89,West,266,0.0,2.0,44,0.00,,,0.00,Wunderground v.1.15,2013-02-07 16:20:00,
2013-02-07 09:25:00,30.3,10.4,29.89,SW,234,1.0,2.0,43,0.00,,,0.00,Wunderground v.1.15,2013-02-07 16:25:00,
2013-02-07 09:30:00,30.8,11.9,29.89,WNW,295,0.0,3.0,45,0.00,,,0.00,Wunderground v.1.15,2013-02-07 16:30:00,
2013-02-07 09:35:00,31.0,11.6,29.89,WSW,253,0.0,3.0,44,0.00,,,0.00,Wunderground v.1.15,2013-02-07 16:35:00,
2013-02-07 09:40:00,31.2,10.7,29.89,SSE,167,0.0,2.0,42,0.00,,,0.00,Wunderground v.1.15,2013-02-07 16:40:00,
2013-02-07 09:45:00,31.5,11.0,29.89,SW,218,0.0,2.0,42,0.00,,,0.00,Wunderground v.1.15,2013-02-07 16:45:00,
2013-02-07 09:50:00,31.9,11.4,29.89,WNW,290,0.0,2.0,42,0.00,,,0.00,Wunderground v.1.15,2013-02-07 16:50:00,
2013-02-07 09:55:00,32.2,11.1,29.89,WNW,294,1.0,2.0,41,0.00,,,0.00,Wunderground v.1.15,2013-02-07 16:55:00,
2013-02-07 10:00:00,32.2,11.1,29.89,NW,312,1.0,1.0,41,0.00,,,0.00,Wunderground v.1.15,2013-02-07 17:00:00,
2013-02-07 10:05:00,32.5,11.9,29.90,WSW,255,0.0,2.0,42,0.00,,,0.00,Wunderground v.1.15,2013-02-07 17:05:00,
2013-02-07 10:10:00,32.8,11.6,29.90,WNW,284,0.0,2.0,41,0.00,,,0.00,Wunderground v.1.15,2013-02-07 17:10:00,
2013-02-07 10:15:00,33.0,11.3,29.90,North,351,0.0,2.0,40,0.00,,,0.00,Wunderground v.1.15,2013-02-07 17:15:00,
2013-02-07 10:25:00,33.6,11.2,29.90,South,170,1.0,2.0,39,0.00,,,0.00,Wunderground v.1.15,2013-02-07 17:25:00,
2013-02-07 10:30:00,33.5,11.2,29.91,South,174,1.0,1.0,39,0.00,,,0.00,Wunderground v.1.15,2013-02-07 17:30:00,
2013-02-07 10:35:00,33.6,11.2,29.91,SSE,150,1.0,2.0,39,0.00,,,0.00,Wunderground v.1.15,2013-02-07 17:35:00,
2013-02-07 10:40:00,33.7,10.7,29.91,ENE,71,1.0,2.0,38,0.00,,,0.00,Wunderground v.1.15,2013-02-07 17:40:00,
2013-02-07 10:45:00,33.8,10.2,29.91,SSE,167,1.0,2.0,37,0.00,,,0.00,Wunderground v.1.15,2013-02-07 17:45:00,
2013-02-07 10:50:00,33.8,10.2,29.91,NW,304,0.0,2.0,37,0.00,,,0.00,Wunderground v.1.15,2013-02-07 17:50:00,
2013-02-07 10:55:00,33.7,10.1,29.91,NNE,26,0.0,2.0,37,0.00,,,0.00,Wunderground v.1.15,2013-02-07 17:55:00,
2013-02-07 11:00:00,33.5,10.0,29.91,West,281,0.0,2.0,37,0.00,,,0.00,Wunderground v.1.15,2013-02-07 18:00:00,
2013-02-07 11:05:00,33.7,8.9,29.91,WSW,251,0.0,2.0,35,0.00,,,0.00,Wunderground v.1.15,2013-02-07 18:05:00,
2013-02-07 11:10:00,34.2,9.4,29.91,South,184,0.0,2.0,35,0.00,,,0.00,Wunderground v.1.15,2013-02-07 18:10:00,
2013-02-07 11:15:00,34.6,9.7,29.91,SSE,163,0.0,2.0,35,0.00,,,0.00,Wunderground v.1.15,2013-02-07 18:15:00,
2013-02-07 11:20:00,35.2,10.2,29.91,SSE,159,0.0,2.0,35,0.00,,,0.00,Wunderground v.1.15,2013-02-07 18:20:00,
2013-02-07 11:25:00,35.7,10.7,29.91,East,97,1.0,2.0,35,0.00,,,0.00,Wunderground v.1.15,2013-02-07 18:25:00,
2013-02-07 11:30:00,35.9,9.5,29.91,SE,134,1.0,1.0,33,0.00,,,0.00,Wunderground v.1.15,2013-02-07 18:30:00,
2013-02-07 11:35:00,36.1,8.3,29.91,ENE,65,0.0,2.0,31,0.00,,,0.00,Wunderground v.1.15,2013-02-07 18:35:00,
2013-02-07 11:40:00,36.5,8.0,29.91,SSW,194,0.0,3.0,30,0.00,,,0.00,Wunderground v.1.15,2013-02-07 18:40:00,
2013-02-07 11:45:00,36.9,7.5,29.90,SSE,149,1.0,3.0,29,0.00,,,0.00,Wunderground v.1.15,2013-02-07 18:45:00,
2013-02-07 11:50:00,36.8,5.9,29.90,SSE,164,1.0,1.0,27,0.00,,,0.00,Wunderground v.1.15,2013-02-07 18:50:00,
2013-02-07 11:55:00,36.6,6.5,29.90,NE,51,2.0,2.0,28,0.00,,,0.00,Wunderground v.1.15,2013-02-07 18:55:00,
2013-02-07 12:00:00,36.5,5.6,29.90,SSW,195,1.0,2.0,27,0.00,,,0.00,Wunderground v.1.15,2013-02-07 19:00:00,
2013-02-07 12:05:00,36.8,5.9,29.89,NNW,339,1.0,2.0,27,0.00,,,0.00,Wunderground v.1.15,2013-02-07 19:05:00,
2013-02-07 12:10:00,37.0,6.1,29.90,SE,144,1.0,1.0,27,0.00,,,0.00,Wunderground v.1.15,2013-02-07 19:10:00,
2013-02-07 12:15:00,37.4,4.7,29.89,SE,135,0.0,2.0,25,0.00,,,0.00,Wunderground v.1.15,2013-02-07 19:15:00,
2013-02-07 12:20:00,38.1,3.5,29.89,SSE,163,0.0,2.0,23,0.00,,,0.00,Wunderground v.1.15,2013-02-07 19:20:00,
2013-02-07 12:25:00,38.7,4.0,29.89,SSE,165,0.0,2.0,23,0.00,,,0.00,Wunderground v.1.15,2013-02-07 19:25:00,
2013-02-07 12:30:00,39.3,3.6,29.89,SW,227,0.0,2.0,22,0.00,,,0.00,Wunderground v.1.15,2013-02-07 19:30:00,
2013-02-07 12:35:00,39.3,1.5,29.89,WNW,284,1.0,2.0,20,0.00,,,0.00,Wunderground v.1.15,2013-02-07 19:35:00,
2013-02-07 12:40:00,39.3,1.5,29.89,WSW,258,1.0,2.0,20,0.00,,,0.00,Wunderground v.1.15,2013-02-07 19:40:00,
2013-02-07 12:50:00,40.0,-0.2,29.89,South,175,0.0,2.0,18,0.00,,,0.00,Wunderground v.1.15,2013-02-07 19:50:00,
2013-02-07 12:55:00,40.3,0.1,29.89,South,178,0.0,2.0,18,0.00,,,0.00,Wunderground v.1.15,2013-02-07 19:55:00,
2013-02-07 13:00:00,40.6,0.3,29.88,West,273,0.0,2.0,18,0.00,,,0.00,Wunderground v.1.15,2013-02-07 20:00:00,
2013-02-07 13:05:00,40.6,-0.9,29.88,South,184,1.0,2.0,17,0.00,,,0.00,Wunderground v.1.15,2013-02-07 20:05:00,
2013-02-07 13:10:00,40.6,-2.2,29.88,NNW,342,1.0,1.0,16,0.00,,,0.00,Wunderground v.1.15,2013-02-07 20:10:00,
2013-02-07 13:15:00,40.6,0.3,29.88,NNW,331,0.0,2.0,18,0.00,,,0.00,Wunderground v.1.15,2013-02-07 20:15:00,
2013-02-07 13:20:00,40.8,-4.8,29.88,WSW,243,0.0,2.0,14,0.00,,,0.00,Wunderground v.1.15,2013-02-07 20:20:00,
2013-02-07 13:30:00,41.0,-6.2,29.88,South,176,0.0,2.0,13,0.00,,,0.00,Wunderground v.1.15,2013-02-07 20:30:00,
2013-02-07 13:35:00,41.3,-6.0,29.88,NNW,348,0.0,2.0,13,0.00,,,0.00,Wunderground v.1.15,2013-02-07 20:35:00,
2013-02-07 13:40:00,41.5,-5.8,29.87,North,350,0.0,2.0,13,0.00,,,0.00,Wunderground v.1.15,2013-02-07 20:40:00,
2013-02-07 13:45:00,41.5,-4.3,29.87,West,270,0.0,2.0,14,0.00,,,0.00,Wunderground v.1.15,2013-02-07 20:45:00,
2013-02-07 13:55:00,41.4,-5.9,29.87,SSE,148,0.0,2.0,13,0.00,,,0.00,Wunderground v.1.15,2013-02-07 20:55:00,
2013-02-07 14:05:00,41.7,-9.1,29.87,North,9,1.0,2.0,11,0.00,,,0.00,Wunderground v.1.15,2013-02-07 21:05:00,
2013-02-07 14:10:00,41.8,-9.0,29.86,South,169,1.0,2.0,11,0.00,,,0.00,Wunderground v.1.15,2013-02-07 21:10:00,
2013-02-07 14:15:00,42.0,-12.9,29.86,SSE,157,1.0,1.0,9,0.00,,,0.00,Wunderground v.1.15,2013-02-07 21:15:00,
2013-02-07 14:25:00,42.4,-8.5,29.86,East,85,0.0,2.0,11,0.00,,,0.00,Wunderground v.1.15,2013-02-07 21:25:00,
2013-02-07 14:30:00,42.0,-8.8,29.86,WSW,237,0.0,2.0,11,0.00,,,0.00,Wunderground v.1.15,2013-02-07 21:30:00,
2013-02-07 14:35:00,41.6,-9.2,29.86,SE,146,0.0,5.0,11,0.00,,,0.00,Wunderground v.1.15,2013-02-07 21:35:00,
2013-02-07 14:40:00,41.4,-5.9,29.86,South,189,1.0,5.0,13,0.00,,,0.00,Wunderground v.1.15,2013-02-07 21:40:00,
2013-02-07 14:45:00,41.3,-3.0,29.86,SSE,165,1.0,1.0,15,0.00,,,0.00,Wunderground v.1.15,2013-02-07 21:45:00,
2013-02-07 14:50:00,41.4,-4.3,29.86,WNW,286,1.0,2.0,14,0.00,,,0.00,Wunderground v.1.15,2013-02-07 21:50:00,
2013-02-07 14:55:00,41.3,-3.0,29.86,SSE,154,0.0,2.0,15,0.00,,,0.00,Wunderground v.1.15,2013-02-07 21:55:00,
2013-02-07 15:00:00,41.4,-4.3,29.86,SSE,154,0.0,2.0,14,0.00,,,0.00,Wunderground v.1.15,2013-02-07 22:00:00,
2013-02-07 15:05:00,41.7,-2.6,29.86,West,261,0.0,2.0,15,0.00,,,0.00,Wunderground v.1.15,2013-02-07 22:05:00,
2013-02-07 15:10:00,41.9,-2.5,29.86,WSW,248,0.0,2.0,15,0.00,,,0.00,Wunderground v.1.15,2013-02-07 22:10:00,
2013-02-07 15:15:00,41.8,-2.6,29.86,SSE,153,0.0,2.0,15,0.00,,,0.00,Wunderground v.1.15,2013-02-07 22:15:00,
2013-02-07 15:20:00,41.3,-1.6,29.86,South,171,1.0,2.0,16,0.00,,,0.00,Wunderground v.1.15,2013-02-07 22:20:00,
2013-02-07 15:25:00,40.6,-2.2,29.86,SE,146,1.0,2.0,16,0.00,,,0.00,Wunderground v.1.15,2013-02-07 22:25:00,
2013-02-07 15:30:00,40.2,0.0,29.86,East,98,1.0,1.0,18,0.00,,,0.00,Wunderground v.1.15,2013-02-07 22:30:00,
2013-02-07 15:35:00,40.1,-2.6,29.86,East,84,1.0,2.0,16,0.00,,,0.00,Wunderground v.1.15,2013-02-07 22:35:00,
2013-02-07 15:45:00,40.0,-0.2,29.86,East,80,1.0,3.0,18,0.00,,,0.00,Wunderground v.1.15,2013-02-07 22:45:00,
2013-02-07 15:50:00,39.6,0.6,29.86,SSE,163,1.0,1.0,19,0.00,,,0.00,Wunderground v.1.15,2013-02-07 22:50:00,
2013-02-07 16:00:00,39.1,1.3,29.86,South,171,1.0,1.0,20,0.00,,,0.00,Wunderground v.1.15,2013-02-07 23:00:00,
2013-02-07 16:05:00,39.0,1.2,29.86,South,174,1.0,2.0,20,0.00,,,0.00,Wunderground v.1.15,2013-02-07 23:05:00,
2013-02-07 16:10:00,38.8,1.1,29.87,SSW,205,1.0,1.0,20,0.00,,,0.00,Wunderground v.1.15,2013-02-07 23:10:00,
2013-02-07 16:15:00,38.5,1.9,29.86,SSE,166,1.0,2.0,21,0.00,,,0.00,Wunderground v.1.15,2013-02-07 23:15:00,
2013-02-07 16:20:00,38.3,1.7,29.87,SW,225,0.0,2.0,21,0.00,,,0.00,Wunderground v.1.15,2013-02-07 23:20:00,
2013-02-07 16:25:00,38.0,1.5,29.87,SW,224,0.0,2.0,21,0.00,,,0.00,Wunderground v.1.15,2013-02-07 23:25:00,
2013-02-07 16:35:00,37.3,5.5,29.87,SSE,157,1.0,2.0,26,0.00,,,0.00,Wunderground v.1.15,2013-02-07 23:35:00,
2013-02-07 16:45:00,36.4,7.1,29.88,SSW,213,2.0,6.0,29,0.00,,,0.00,Wunderground v.1.15,2013-02-07 23:45:00,
2013-02-07 16:50:00,36.0,12.8,29.88,SSW,199,1.0,2.0,38,0.00,,,0.00,Wunderground v.1.15,2013-02-07 23:50:00,
2013-02-07 16:55:00,35.6,3.2,29.88,SSE,164,1.0,2.0,25,0.00,,,0.00,Wunderground v.1.15,2013-02-07 23:55:00,
2013-02-07 17:00:00,35.4,1.2,29.88,South,182,1.0,4.0,23,0.00,,,0.00,Wunderground v.1.15,2013-02-08 00:00:00,
2013-02-07 17:05:00,35.2,1.0,29.88,SSE,159,1.0,4.0,23,0.00,,,0.00,Wunderground v.1.15,2013-02-08 00:05:00,
2013-02-07 17:10:00,35.2,0.1,29.88,SE,139,1.0,1.0,22,0.00,,,0.00,Wunderground v.1.15,2013-02-08 00:10:00,
2013-02-07 17:15:00,35.0,-0.1,29.88,SE,139,0.0,2.0,22,0.00,,,0.00,Wunderground v.1.15,2013-02-08 00:15:00,
2013-02-07 17:20:00,34.5,-0.5,29.88,SE,139,0.0,2.0,22,0.00,,,0.00,Wunderground v.1.15,2013-02-08 00:20:00,
2013-02-07 17:30:00,33.1,0.2,29.89,SE,139,0.0,2.0,24,0.00,,,0.00,Wunderground v.1.15,2013-02-08 00:30:00,
2013-02-07 17:35:00,32.2,1.1,29.89,SE,139,0.0,2.0,26,0.00,,,0.00,Wunderground v.1.15,2013-02-08 00:35:00,
2013-02-07 17:40:00,31.3,0.3,29.89,SE,139,0.0,2.0,26,0.00,,,0.00,Wunderground v.1.15,2013-02-08 00:40:00,
2013-02-07 17:45:00,29.9,1.4,29.89,SE,139,0.0,2.0,29,0.00,,,0.00,Wunderground v.1.15,2013-02-08 00:45:00,
2013-02-07 17:50:00,28.7,0.4,29.89,SE,139,0.0,2.0,29,0.00,,,0.00,Wunderground v.1.15,2013-02-08 00:50:00,
2013-02-07 17:55:00,27.9,2.5,29.89,SE,139,0.0,2.0,33,0.00,,,0.00,Wunderground v.1.15,2013-02-08 00:55:00,
2013-02-07 18:05:00,26.7,2.0,29.89,SE,139,0.0,2.0,34,0.00,,,0.00,Wunderground v.1.15,2013-02-08 01:05:00,
2013-02-07 18:15:00,26.1,3.9,29.90,SE,139,0.0,2.0,38,0.00,,,0.00,Wunderground v.1.15,2013-02-08 01:15:00,
2013-02-07 18:25:00,25.7,6.8,29.90,SE,139,0.0,2.0,44,0.00,,,0.00,Wunderground v.1.15,2013-02-08 01:25:00,
2013-02-07 18:30:00,25.5,6.6,29.90,SE,139,0.0,2.0,44,0.00,,,0.00,Wunderground v.1.15,2013-02-08 01:30:00,
2013-02-07 18:40:00,25.2,6.8,29.90,SE,139,0.0,2.0,45,0.00,,,0.00,Wunderground v.1.15,2013-02-08 01:40:00,
2013-02-07 18:45:00,25.1,6.7,29.90,SE,139,0.0,2.0,45,0.00,,,0.00,Wunderground v.1.15,2013-02-08 01:45:00,
2013-02-07 18:50:00,25.1,8.1,29.90,SE,139,0.0,2.0,48,0.00,,,0.00,Wunderground v.1.15,2013-02-08 01:50:00,
2013-02-07 18:55:00,24.8,9.2,29.91,SE,139,0.0,2.0,51,0.00,,,0.00,Wunderground v.1.15,2013-02-08 01:55:00,
2013-02-07 19:05:00,24.4,10.1,29.91,SE,139,0.0,2.0,54,0.00,,,0.00,Wunderground v.1.15,2013-02-08 02:05:00,
2013-02-07 19:10:00,24.1,10.2,29.91,SE,139,0.0,2.0,55,0.00,,,0.00,Wunderground v.1.15,2013-02-08 02:10:00,
2013-02-07 19:15:00,23.9,10.1,29.91,SE,139,0.0,2.0,55,0.00,,,0.00,Wunderground v.1.15,2013-02-08 02:15:00,
2013-02-07 19:20:00,23.6,11.0,29.91,SE,139,0.0,2.0,58,0.00,,,0.00,Wunderground v.1.15,2013-02-08 02:20:00,
2013-02-07 19:30:00,23.1,12.0,29.91,SE,139,0.0,2.0,62,0.00,,,0.00,Wunderground v.1.15,2013-02-08 02:30:00,
2013-02-07 19:35:00,23.1,12.4,29.91,SE,139,0.0,2.0,63,0.00,,,0.00,Wunderground v.1.15,2013-02-08 02:35:00,
2013-02-07 19:40:00,23.0,12.6,29.91,SE,139,0.0,2.0,64,0.00,,,0.00,Wunderground v.1.15,2013-02-08 02:40:00,
2013-02-07 19:45:00,22.8,12.8,29.91,SE,139,0.0,2.0,65,0.00,,,0.00,Wunderground v.1.15,2013-02-08 02:45:00,
2013-02-07 19:50:00,22.6,12.6,29.91,SE,139,0.0,2.0,65,0.00,,,0.00,Wunderground v.1.15,2013-02-08 02:50:00,
2013-02-07 19:55:00,22.4,12.8,29.91,SE,139,0.0,2.0,66,0.00,,,0.00,Wunderground v.1.15,2013-02-08 02:55:00,
2013-02-07 20:00:00,22.3,14.6,29.92,SE,139,0.0,2.0,72,0.00,,,0.00,Wunderground v.1.15,2013-02-08 03:00:00,
2013-02-07 20:05:00,22.0,12.4,29.92,SE,139,0.0,2.0,66,0.00,,,0.00,Wunderground v.1.15,2013-02-08 03:05:00,
2013-02-07 20:10:00,21.7,11.7,29.92,SE,139,0.0,2.0,65,0.00,,,0.00,Wunderground v.1.15,2013-02-08 03:10:00,
2013-02-07 20:15:00,21.4,12.1,29.92,SE,139,0.0,2.0,67,0.00,,,0.00,Wunderground v.1.15,2013-02-08 03:15:00,
2013-02-07 20:20:00,21.1,11.8,29.92,SE,139,0.0,2.0,67,0.00,,,0.00,Wunderground v.1.15,2013-02-08 03:20:00,
2013-02-07 20:25:00,20.9,12.6,29.93,SE,139,0.0,2.0,70,0.00,,,0.00,Wunderground v.1.15,2013-02-08 03:25:00,
2013-02-07 20:30:00,20.7,12.8,29.93,SE,139,0.0,2.0,71,0.00,,,0.00,Wunderground v.1.15,2013-02-08 03:30:00,
2013-02-07 20:40:00,20.2,12.6,29.93,SE,139,0.0,2.0,72,0.00,,,0.00,Wunderground v.1.15,2013-02-08 03:40:00,
2013-02-07 20:45:00,19.9,12.3,29.92,SE,139,0.0,2.0,72,0.00,,,0.00,Wunderground v.1.15,2013-02-08 03:45:00,
2013-02-07 20:50:00,19.9,12.6,29.93,SE,139,0.0,2.0,73,0.00,,,0.00,Wunderground v.1.15,2013-02-08 03:50:00,
2013-02-07 20:55:00,19.9,12.9,29.93,SE,139,0.0,2.0,74,0.00,,,0.00,Wunderground v.1.15,2013-02-08 03:55:00,
2013-02-07 21:00:00,19.7,13.1,29.93,SE,139,0.0,2.0,75,0.00,,,0.00,Wunderground v.1.15,2013-02-08 04:00:00,
2013-02-07 21:10:00,19.4,13.9,29.93,SE,139,0.0,2.0,79,0.00,,,0.00,Wunderground v.1.15,2013-02-08 04:10:00,
2013-02-07 21:20:00,19.1,13.9,29.93,SE,139,0.0,2.0,80,0.00,,,0.00,Wunderground v.1.15,2013-02-08 04:20:00,
2013-02-07 21:25:00,19.0,13.8,29.93,WSW,239,0.0,2.0,80,0.00,,,0.00,Wunderground v.1.15,2013-02-08 04:25:00,
2013-02-07 21:30:00,24.1,19.1,29.93,NE,48,0.0,2.0,81,0.00,,,0.00,Wunderground v.1.15,2013-02-08 04:30:00,
2013-02-07 21:35:00,24.1,17.3,29.93,NE,49,0.0,2.0,75,0.00,,,0.00,Wunderground v.1.15,2013-02-08 04:35:00,
2013-02-07 21:40:00,23.9,16.8,29.93,NE,44,2.0,2.0,74,0.00,,,0.00,Wunderground v.1.15,2013-02-08 04:40:00,
2013-02-07 21:45:00,23.6,16.2,29.92,NE,44,3.0,3.0,73,0.00,,,0.00,Wunderground v.1.15,2013-02-08 04:45:00,
2013-02-07 21:50:00,23.5,16.1,29.93,NE,44,2.0,2.0,73,0.00,,,0.00,Wunderground v.1.15,2013-02-08 04:50:00,
2013-02-07 22:00:00,23.4,15.7,29.92,NNE,28,1.0,2.0,72,0.00,,,0.00,Wunderground v.1.15,2013-02-08 05:00:00,
2013-02-07 22:05:00,23.4,15.7,29.92,NNE,28,1.0,2.0,72,0.00,,,0.00,Wunderground v.1.15,2013-02-08 05:05:00,
2013-02-07 22:10:00,23.5,15.8,29.92,NNE,28,1.0,2.0,72,0.00,,,0.00,Wunderground v.1.15,2013-02-08 05:10:00,
2013-02-07 22:15:00,23.6,15.6,29.92,NNE,28,1.0,2.0,71,0.00,,,0.00,Wunderground v.1.15,2013-02-08 05:15:00,
2013-02-07 22:20:00,23.8,15.4,29.92,NNE,28,1.0,1.0,70,0.00,,,0.00,Wunderground v.1.15,2013-02-08 05:20:00,
2013-02-07 22:25:00,24.1,15.7,29.92,NNE,28,1.0,2.0,70,0.00,,,0.00,Wunderground v.1.15,2013-02-08 05:25:00,
2013-02-07 22:30:00,24.3,14.2,29.92,NNE,28,1.0,2.0,65,0.00,,,0.00,Wunderground v.1.15,2013-02-08 05:30:00,
2013-02-07 22:35:00,24.2,14.5,29.92,NNE,28,2.0,3.0,66,0.00,,,0.00,Wunderground v.1.15,2013-02-08 05:35:00,
2013-02-07 22:40:00,23.9,14.2,29.92,NW,323,2.0,3.0,66,0.00,,,0.00,Wunderground v.1.15,2013-02-08 05:40:00,
2013-02-07 22:45:00,23.6,14.9,29.92,NNW,330,2.0,3.0,69,0.00,,,0.00,Wunderground v.1.15,2013-02-08 05:45:00,
2013-02-07 22:50:00,23.5,14.1,29.92,NNW,331,1.0,1.0,67,0.00,,,0.00,Wunderground v.1.15,2013-02-08 05:50:00,
2013-02-07 22:55:00,23.5,14.1,29.93,NNW,332,1.0,2.0,67,0.00,,,0.00,Wunderground v.1.15,2013-02-08 05:55:00,
2013-02-07 23:00:00,23.5,14.8,29.93,NNW,332,1.0,1.0,69,0.00,,,0.00,Wunderground v.1.15,2013-02-08 06:00:00,
2013-02-07 23:05:00,23.4,12.6,29.93,NNW,332,0.0,2.0,63,0.00,,,0.00,Wunderground v.1.15,2013-02-08 06:05:00,
2013-02-07 23:15:00,23.6,12.8,29.93,NNW,332,0.0,2.0,63,0.00,,,0.00,Wunderground v.1.15,2013-02-08 06:15:00,
2013-02-07 23:20:00,23.7,12.6,29.93,NNW,332,0.0,2.0,62,0.00,,,0.00,Wunderground v.1.15,2013-02-08 06:20:00,
2013-02-07 23:25:00,23.9,13.1,29.92,NNW,331,0.0,2.0,63,0.00,,,0.00,Wunderground v.1.15,2013-02-08 06:25:00,
2013-02-07 23:30:00,23.9,13.5,29.92,NNW,332,0.0,2.0,64,0.00,,,0.00,Wunderground v.1.15,2013-02-08 06:30:00,
2013-02-07 23:40:00,24.1,12.9,29.92,ESE,116,1.0,2.0,62,0.00,,,0.00,Wunderground v.1.15,2013-02-08 06:40:00,
2013-02-07 23:45:00,24.1,12.6,29.92,SSE,157,1.0,2.0,61,0.00,,,0.00,Wunderground v.1.15,2013-02-08 06:45:00,
2013-02-07 23:50:00,24.1,12.6,29.92,SSE,164,1.0,8.0,61,0.00,,,0.00,Wunderground v.1.15,2013-02-08 06:50:00,
2013-02-07 23:55:00,24.4,11.7,29.92,SE,137,4.0,15.0,58,0.00,,,0.00,Wunderground v.1.15,2013-02-08 06:55:00,